{"data":{"norad_id":52274,"epoch":"2026-05-25T02:47:17.172672Z","epoch_age_seconds":64176,"freshness":"FRESH","line1":"1 52274U 22041P   26145.11617098 -.00000179  00000+0  68668-5 0  9996","line2":"2 52274  53.2144 126.0266 0001318  76.8337 283.2802 15.08836885225906","mean_motion":15.08836885,"eccentricity":0.0001318,"inclination_deg":53.2144,"raan_deg":126.0266,"arg_perigee_deg":76.8337,"mean_anomaly_deg":283.2802,"bstar":6.8668e-6,"rev_number":22590,"period_min":95.437751708993,"perigee_km":538.84113239913,"apogee_km":540.66468817948,"semimajor_km":6917.8899102893,"source":"CELESTRAK","updated_at":"2026-05-25T13:38:17.082567Z"}}